�������l�o���
Date,Time,MP-1(��Sv/h),MP-2(��Sv/h),MP-3(��Sv/h),MP-4(��Sv/h),MP-5(��Sv/h),MP-6(��Sv/h),MP-7(��Sv/h),����,����(m/s),���J
2019/03/27,00:00,0.207,0.190,0.315,0.293,0.279,0.156,0.094,���k��,4.9,��
2019/03/27,00:10,0.207,0.190,0.315,0.296,0.278,0.156,0.094,���k��,4.9,��
2019/03/27,00:20,0.206,0.190,0.314,0.295,0.278,0.156,0.095,���k��,5.3,��
2019/03/27,00:30,0.206,0.191,0.313,0.294,0.277,0.156,0.095,���k��,7.0,��
2019/03/27,00:40,0.207,0.190,0.314,0.295,0.278,0.157,0.095,�k��,7.3,��
2019/03/27,00:50,0.207,0.191,0.315,0.294,0.277,0.156,0.095,���k��,9.2,��
2019/03/27,01:00,0.206,0.190,0.313,0.294,0.278,0.156,0.095,���k��,9.2,��
2019/03/27,01:10,0.207,0.190,0.315,0.293,0.277,0.156,0.095,���k��,8.1,��
2019/03/27,01:20,0.207,0.190,0.314,0.293,0.278,0.156,0.095,���k��,7.4,��
2019/03/27,01:30,0.206,0.190,0.315,0.294,0.278,0.157,0.095,���k��,6.4,��
2019/03/27,01:40,0.207,0.189,0.315,0.294,0.278,0.157,0.095,���k��,5.9,��
2019/03/27,01:50,0.206,0.191,0.314,0.294,0.277,0.156,0.095,���k��,6.8,��
2019/03/27,02:00,0.206,0.189,0.315,0.294,0.277,0.156,0.095,���k��,9.2,��
2019/03/27,02:10,0.205,0.189,0.316,0.295,0.278,0.156,0.095,���k��,9.5,��
2019/03/27,02:20,0.207,0.190,0.315,0.293,0.278,0.156,0.096,���k��,9.3,��
2019/03/27,02:30,0.207,0.190,0.316,0.294,0.278,0.157,0.095,���k��,8.2,��
2019/03/27,02:40,0.207,0.190,0.314,0.295,0.277,0.157,0.094,���k��,6.7,��
2019/03/27,02:50,0.206,0.189,0.316,0.294,0.278,0.156,0.095,���k��,5.1,��
2019/03/27,03:00,0.207,0.191,0.313,0.293,0.278,0.156,0.095,���k��,4.1,��
2019/03/27,03:10,0.207,0.190,0.314,0.294,0.278,0.156,0.095,�k�k��,2.3,��
2019/03/27,03:20,0.206,0.190,0.314,0.296,0.277,0.156,0.095,�k��,2.4,��
2019/03/27,03:30,0.206,0.189,0.314,0.294,0.277,0.156,0.094,�k��,3.7,��
2019/03/27,03:40,0.207,0.191,0.314,0.294,0.277,0.156,0.094,���k��,6.0,��
2019/03/27,03:50,0.206,0.191,0.313,0.294,0.277,0.156,0.095,���k��,7.3,��
2019/03/27,04:00,0.208,0.190,0.314,0.295,0.279,0.156,0.094,���k��,7.4,��
2019/03/27,04:10,0.207,0.190,0.313,0.293,0.277,0.155,0.095,���k��,6.6,��
2019/03/27,04:20,0.206,0.189,0.314,0.293,0.277,0.156,0.095,�k��,4.3,��
2019/03/27,04:30,0.207,0.189,0.314,0.293,0.279,0.156,0.095,�k��,3.5,��
2019/03/27,04:40,0.207,0.191,0.315,0.294,0.278,0.157,0.094,���k��,3.2,��
2019/03/27,04:50,0.206,0.190,0.314,0.294,0.276,0.157,0.095,���k��,2.8,��
2019/03/27,05:00,0.207,0.190,0.315,0.294,0.276,0.156,0.095,���k��,1.4,��
2019/03/27,05:10,0.206,0.190,0.313,0.294,0.278,0.156,0.094,���쐼,2.0,��
2019/03/27,05:20,0.207,0.190,0.315,0.292,0.277,0.156,0.095,���k��,1.9,��
2019/03/27,05:30,0.206,0.190,0.315,0.293,0.276,0.156,0.094,���k��,3.3,��
2019/03/27,05:40,0.207,0.189,0.314,0.295,0.277,0.156,0.095,���k��,6.7,��
2019/03/27,05:50,0.206,0.191,0.314,0.293,0.277,0.155,0.095,���k��,7.3,��
2019/03/27,06:00,0.207,0.191,0.315,0.294,0.276,0.156,0.095,���k��,6.8,��
2019/03/27,06:10,0.205,0.191,0.314,0.294,0.278,0.157,0.095,�k��,6.5,��
2019/03/27,06:20,0.208,0.191,0.314,0.295,0.278,0.156,0.095,�k��,5.9,��
2019/03/27,06:30,0.206,0.190,0.314,0.293,0.278,0.156,0.095,�k�k��,5.1,��
2019/03/27,06:40,0.207,0.190,0.314,0.293,0.277,0.156,0.095,�k,5.2,��
2019/03/27,06:50,0.208,0.190,0.314,0.293,0.276,0.156,0.094,�k,4.3,��
2019/03/27,07:00,0.205,0.189,0.316,0.294,0.277,0.157,0.094,�k,3.3,��
2019/03/27,07:10,0.207,0.190,0.316,0.293,0.279,0.156,0.094,�k,3.0,��
2019/03/27,07:20,0.207,0.190,0.313,0.293,0.278,0.156,0.095,�k�k��,3.3,��
2019/03/27,07:30,0.206,0.190,0.314,0.293,0.276,0.155,0.094,�k��,2.4,��
2019/03/27,07:40,0.206,0.190,0.314,0.292,0.278,0.157,0.095,���k��,0.7,��
2019/03/27,07:50,0.206,0.191,0.314,0.293,0.277,0.156,0.094,��,2.1,��
2019/03/27,08:00,0.206,0.191,0.314,0.290,0.277,0.157,0.095,��,4.5,��
2019/03/27,08:10,0.206,0.190,0.313,0.292,0.278,0.156,0.095,���쓌,4.6,��
2019/03/27,08:20,0.207,0.191,0.314,0.292,0.277,0.156,0.094,���쓌,5.3,��
2019/03/27,08:30,0.207,0.189,0.314,0.293,0.277,0.157,0.094,���쓌,5.7,��
2019/03/27,08:40,0.205,0.191,0.314,0.294,0.279,0.156,0.094,���쓌,6.3,��
2019/03/27,08:50,0.206,0.189,0.313,0.293,0.277,0.156,0.095,���쓌,7.6,��
2019/03/27,09:00,0.204,0.189,0.314,0.293,0.278,0.156,0.094,���쓌,8.3,��
2019/03/27,09:10,0.206,0.189,0.314,0.291,0.277,0.156,0.095,���쓌,8.2,��
2019/03/27,09:20,0.205,0.188,0.313,0.294,0.278,0.155,0.094,���쓌,7.9,��
2019/03/27,09:30,0.207,0.189,0.313,0.293,0.278,0.157,0.094,���쓌,7.3,��
2019/03/27,09:40,0.204,0.189,0.316,0.295,0.277,0.155,0.095,���쓌,6.7,��
2019/03/27,09:50,0.207,0.189,0.315,0.291,0.279,0.155,0.095,���쓌,7.0,��
2019/03/27,10:00,0.206,0.190,0.314,0.295,0.276,0.155,0.094,���쓌,6.0,��
2019/03/27,10:10,0.205,0.189,0.316,0.292,0.279,0.155,0.095,�쓌,4.6,��
2019/03/27,10:20,0.206,0.189,0.313,0.292,0.276,0.156,0.094,��,3.1,��
2019/03/27,10:30,0.206,0.189,0.315,0.291,0.279,0.156,0.094,���쐼,3.5,��
2019/03/27,10:40,0.207,0.191,0.314,0.293,0.275,0.155,0.095,��,4.6,��
2019/03/27,10:50,0.204,0.190,0.313,0.293,0.279,0.156,0.094,���k��,7.3,��
2019/03/27,11:00,0.206,0.189,0.313,0.291,0.276,0.156,0.095,��,10.7,��
2019/03/27,11:10,0.206,0.189,0.313,0.293,0.277,0.156,0.094,��,12.0,��
2019/03/27,11:20,0.207,0.189,0.312,0.293,0.277,0.155,0.095,���k��,12.1,��
2019/03/27,11:30,0.207,0.189,0.313,0.292,0.276,0.157,0.094,���k��,8.2,��
2019/03/27,11:40,0.207,0.190,0.314,0.295,0.279,0.157,0.094,���k��,11.2,��
2019/03/27,11:50,0.206,0.189,0.313,0.292,0.276,0.155,0.095,��,8.6,��
2019/03/27,12:00,0.206,0.189,0.314,0.294,0.277,0.157,0.094,��,8.4,��
2019/03/27,12:10,0.208,0.189,0.315,0.294,0.277,0.155,0.095,���쐼,11.7,��
2019/03/27,12:20,0.206,0.191,0.313,0.292,0.276,0.157,0.094,��,10.6,��
2019/03/27,12:30,0.206,0.190,0.315,0.293,0.279,0.156,0.094,��,9.2,��
2019/03/27,12:40,0.207,0.190,0.313,0.294,0.276,0.155,0.095,��,4.4,��
2019/03/27,12:50,0.206,0.190,0.313,0.291,0.278,0.157,0.094,��,5.7,��
2019/03/27,13:00,0.206,0.189,0.314,0.294,0.279,0.155,0.094,��쓌,6.8,��
2019/03/27,13:10,0.206,0.191,0.315,0.293,0.277,0.157,0.094,��쓌,8.2,��
2019/03/27,13:20,0.208,0.189,0.315,0.292,0.280,0.155,0.095,��,6.2,��
2019/03/27,13:30,0.207,0.191,0.313,0.296,0.278,0.156,0.094,��쓌,7.6,��
2019/03/27,13:40,0.205,0.189,0.316,0.294,0.277,0.156,0.094,��쓌,7.0,��
2019/03/27,13:50,0.207,0.191,0.315,0.296,0.278,0.158,0.095,��쓌,7.0,��
2019/03/27,14:00,0.206,0.190,0.313,0.292,0.277,0.156,0.094,��쓌,5.4,��
2019/03/27,14:10,0.208,0.191,0.316,0.296,0.279,0.157,0.094,�쓌,6.3,��
2019/03/27,14:20,0.206,0.190,0.313,0.294,0.278,0.156,0.094,��쓌,5.9,��
2019/03/27,14:30,0.206,0.190,0.316,0.296,0.279,0.156,0.095,��쓌,6.4,��
2019/03/27,14:40,0.207,0.190,0.313,0.294,0.277,0.156,0.095,��쓌,6.4,��
2019/03/27,14:50,0.205,0.191,0.316,0.295,0.281,0.157,0.094,��쓌,7.1,��
2019/03/27,15:00,0.208,0.190,0.314,0.294,0.279,0.157,0.095,��,6.8,��
2019/03/27,15:10,0.206,0.191,0.317,0.294,0.280,0.156,0.095,��,7.3,��
2019/03/27,15:20,0.207,0.191,0.314,0.296,0.278,0.157,0.094,��쓌,8.2,��
2019/03/27,15:30,0.207,0.190,0.315,0.293,0.280,0.157,0.095,��,8.5,��
2019/03/27,15:40,0.208,0.191,0.316,0.295,0.280,0.156,0.094,��,8.6,��
2019/03/27,15:50,0.207,0.190,0.315,0.294,0.278,0.157,0.095,��,8.7,��
2019/03/27,16:00,0.205,0.190,0.316,0.294,0.280,0.157,0.095,��,8.8,��
2019/03/27,16:10,0.207,0.190,0.315,0.295,0.279,0.157,0.095,��,8.1,��
2019/03/27,16:20,0.205,0.191,0.316,0.294,0.280,0.157,0.095,��,6.8,��
2019/03/27,16:30,0.207,0.191,0.315,0.294,0.277,0.156,0.095,��,6.2,��
2019/03/27,16:40,0.205,0.191,0.314,0.293,0.279,0.156,0.095,��,4.8,��
2019/03/27,16:50,0.206,0.191,0.314,0.294,0.278,0.156,0.094,��,3.7,��
2019/03/27,17:00,0.206,0.191,0.313,0.295,0.277,0.156,0.095,��,3.4,��
2019/03/27,17:10,0.207,0.191,0.315,0.294,0.279,0.156,0.095,��쓌,2.1,��
2019/03/27,17:20,0.206,0.191,0.313,0.295,0.278,0.156,0.095,��,3.1,��
2019/03/27,17:30,0.206,0.190,0.316,0.296,0.279,0.157,0.095,��,3.8,��
2019/03/27,17:40,0.207,0.191,0.315,0.294,0.278,0.157,0.095,��,4.0,��
2019/03/27,17:50,0.207,0.191,0.314,0.296,0.281,0.157,0.094,��,3.6,��
2019/03/27,18:00,0.209,0.191,0.315,0.295,0.279,0.157,0.095,��,3.1,��
2019/03/27,18:10,0.207,0.191,0.316,0.296,0.279,0.158,0.095,��쐼,2.9,��
2019/03/27,18:20,0.207,0.192,0.314,0.295,0.279,0.157,0.095,��쐼,2.9,��
2019/03/27,18:30,0.208,0.191,0.315,0.295,0.279,0.156,0.095,�쐼,3.2,��
2019/03/27,18:40,0.206,0.190,0.315,0.296,0.278,0.157,0.095,�쐼,2.9,��
2019/03/27,18:50,0.206,0.191,0.315,0.296,0.279,0.157,0.095,�쐼,1.5,��
2019/03/27,19:00,0.208,0.190,0.316,0.294,0.278,0.156,0.095,��,1.5,��
2019/03/27,19:10,0.207,0.191,0.316,0.296,0.278,0.157,0.095,��,1.3,��
2019/03/27,19:20,0.207,0.191,0.315,0.295,0.279,0.156,0.095,��,0.9,��
2019/03/27,19:30,0.208,0.191,0.316,0.295,0.279,0.157,0.096,��,1.8,��
2019/03/27,19:40,0.206,0.192,0.316,0.295,0.279,0.158,0.095,-,CALM,��
2019/03/27,19:50,0.208,0.192,0.315,0.296,0.279,0.157,0.095,-,CALM,��
2019/03/27,20:00,0.208,0.191,0.315,0.296,0.279,0.157,0.095,��쓌,0.8,��
2019/03/27,20:10,0.208,0.191,0.316,0.296,0.278,0.158,0.096,���k��,0.9,��
2019/03/27,20:20,0.207,0.192,0.315,0.296,0.279,0.158,0.097,���k��,3.7,��
2019/03/27,20:30,0.208,0.191,0.315,0.294,0.279,0.156,0.096,��,3.7,��
2019/03/27,20:40,0.207,0.191,0.316,0.295,0.278,0.157,0.095,���쐼,4.9,��
2019/03/27,20:50,0.206,0.191,0.316,0.296,0.278,0.157,0.095,���쐼,5.5,��
2019/03/27,21:00,0.207,0.191,0.315,0.296,0.278,0.157,0.096,���쐼,5.4,��
2019/03/27,21:10,0.207,0.191,0.317,0.295,0.279,0.157,0.095,���쐼,5.1,��
2019/03/27,21:20,0.207,0.192,0.315,0.296,0.279,0.157,0.095,��,4.3,��
2019/03/27,21:30,0.207,0.192,0.315,0.296,0.278,0.158,0.096,���쐼,3.9,��
2019/03/27,21:40,0.208,0.190,0.314,0.296,0.278,0.158,0.095,�쐼,1.3,��
2019/03/27,21:50,0.208,0.191,0.316,0.296,0.279,0.158,0.096,���쐼,4.0,��
2019/03/27,22:00,0.207,0.192,0.316,0.296,0.278,0.157,0.096,���쐼,7.0,��
2019/03/27,22:10,0.208,0.191,0.317,0.296,0.279,0.158,0.095,�쐼,6.4,��
2019/03/27,22:20,0.207,0.191,0.317,0.295,0.281,0.158,0.095,�쐼,5.7,��
2019/03/27,22:30,0.207,0.192,0.315,0.296,0.277,0.156,0.096,�쐼,5.9,��
2019/03/27,22:40,0.209,0.190,0.315,0.295,0.278,0.157,0.096,�쐼,7.3,��
2019/03/27,22:50,0.207,0.191,0.316,0.296,0.277,0.158,0.096,�쐼,8.2,��
2019/03/27,23:00,0.207,0.192,0.315,0.296,0.280,0.157,0.096,���쐼,8.8,��
2019/03/27,23:10,0.209,0.191,0.316,0.297,0.280,0.158,0.095,���쐼,10.1,��
2019/03/27,23:20,0.207,0.191,0.315,0.294,0.278,0.158,0.096,���쐼,10.1,�L
2019/03/27,23:30,0.208,0.192,0.315,0.296,0.281,0.158,0.096,��,11.5,�L
2019/03/27,23:40,0.209,0.191,0.317,0.296,0.279,0.157,0.096,��,10.7,��
2019/03/27,23:50,0.208,0.192,0.315,0.295,0.280,0.157,0.096,���쐼,9.6,��
